Location: Port-Aux-Quilles Astronomical Observatory
(47.9769°N, 69.9642°W)
Time: 03:48:03
(UTC-04:00)

Envisat - Visible Passes

Search period start: 21 October 2019 00:00
Search period end: 31 October 2019 00:00
Orbit: 764 x 766 km, 98.1° (Epoch: 21 October)

Date Brightness Start Highest point End Pass type
(mag) Time Alt. Az. Time Alt. Az. Time Alt. Az.
21 Oct 5.0 19:35:48 10° SSW 19:40:10 29° W 19:44:35 10° NW visible
22 Oct 6.7 06:04:11 10° ENE 06:05:19 11° E 06:06:26 10° E visible
22 Oct 3.6 18:58:11 10° S 19:03:12 59° W 19:08:14 10° NNW visible
23 Oct 3.0 18:21:22 10° SSE 18:26:25 69° ENE 18:31:29 10° N visible
23 Oct 5.8 20:02:36 10° SW 20:05:57 18° W 20:09:19 10° NW visible
24 Oct 6.0 06:27:40 10° NE 06:31:11 18° E 06:34:40 10° SE visible
24 Oct 4.6 19:24:12 10° SSW 19:28:49 35° W 19:33:30 10° NNW visible
25 Oct 3.3 18:46:50 10° S 18:51:54 73° WSW 18:57:01 10° NNW visible
25 Oct 6.4 20:31:44 10° W 20:31:50 10° W 20:31:55 10° W visible
26 Oct 3.1 18:10:14 10° SSE 18:15:11 56° ENE 18:20:10 10° N visible
26 Oct 5.5 19:50:41 10° SW 19:54:33 22° W 19:58:27 10° NW visible
27 Oct 6.2 06:16:55 10° NE 06:19:47 15° E 06:22:36 10° ESE visible
27 Oct 4.2 19:12:40 10° S 19:17:29 44° W 19:22:21 10° NNW visible
28 Oct 3.0 18:35:33 10° SSE 18:40:38 89° WSW 18:45:45 10° NNW visible
28 Oct 6.1 20:18:08 10° WSW 20:20:23 13° W 20:22:40 10° WNW visible
29 Oct 5.7 06:41:26 10° NE 06:45:35 25° E 06:49:42 10° SSE visible
29 Oct 3.3 17:59:09 10° SE 18:03:57 45° ENE 18:08:48 10° N visible
29 Oct 5.1 19:38:55 10° SSW 19:43:10 27° W 19:47:28 10° NW visible
30 Oct 6.4 06:06:32 10° ENE 06:08:21 12° E 06:10:09 10° ESE visible
30 Oct 3.8 19:01:13 10° S 19:06:10 54° W 19:11:11 10° NNW visible
